[[{"header":{"parameterUnit":"m.s-1","parameterCategory":1,"la1":30.2991,"la2":30.254,"lo1":-89.0895,"lo2":-89.0444,"dy":0.0017,"dx":0.0017,"nx":28,"ny":28,"refTime":"2024-06-19T09:00:00:Z","depth":0,"parameterNumber":2,"parameterNumberName":"U-component_of_WINDS"},"data":[0,0,0,0,0,0,0,0,0,0,0,0,0,0,0,0,0,0,0,0,0,0,0,0,0,0,0,0,0,0,0,0,0,0,0,0,0,0,0,0,0,0,0,0,0,0,0,0,0,0,0,0,0,0,0,0,0,0,-9.8333,-9.8333,0,-9.8281,-9.828,-9.828,-9.801,-9.8004,-9.7998,-9.7991,-9.7941,-9.7945,-9.795,0,0,0,0,0,0,0,0,0,0,0,0,0,-9.8203,-9.8207,-9.8333,-9.8333,-9.8332,-9.8281,-9.828,-9.828,-9.8012,-9.8004,-9.7996,-9.7989,-9.7939,-9.7945,-9.795,0,0,0,0,0,0,0,0,0,0,0,0,0,-9.8216,-9.8208,-9.8333,-9.8192,-9.8179,-9.8281,-9.828,-9.8279,-9.8013,-9.8003,-9.7994,-9.7985,-9.7937,-9.7944,-9.7951,-9.8186,0,0,-9.7972,-9.7975,0,0,0,0,0,0,0,0,-9.8216,-9.8221,-9.8213,-9.8202,-9.8187,-9.8142,-9.8215,-9.8248,-9.8016,-9.8076,-9.7991,-9.798,-9.8016,-9.8016,-9.8027,-9.8184,-9.8182,-9.7973,-9.7977,-9.798,-9.7982,0,0,0,0,0,0,0,-9.8215,-9.8222,-9.8312,-9.8214,-9.8198,-9.8132,-9.8123,-9.8221,-9.8101,-9.807,-9.805,-9.8048,-9.8007,-9.8021,-9.8024,-9.8181,-9.7973,-9.7979,-9.7983,-9.7986,-9.8528,-9.8538,0,0,0,0,0,0,-9.8234,-9.8223,-9.8314,-9.8311,-9.8178,-9.8142,-9.8132,-9.8167,-9.8099,-9.8079,-9.8056,-9.8035,-9.8014,-9.8016,-9.8021,-9.829,-9.798,-9.7986,-9.799,-9.8518,-9.853,-9.8541,0,0,0,0,0,0,-9.8232,-9.8245,-9.8316,-9.8262,-9.8266,-9.8154,-9.8195,-9.8171,-9.8184,-9.8088,-9.8066,-9.8092,-9.8006,-9.8011,-9.8147,-9.8285,-9.799,-9.7996,-9.8506,-9.8521,-9.8536,-9.8833,0,0,0,0,0,0,-9.823,-9.8246,-9.8333,-9.8266,-9.827,-9.8443,-9.8204,-9.8176,-9.8197,-9.8169,-9.8116,-9.8098,-9.7999,-9.8138,-9.8154,-9.8289,-9.8001,-9.8493,-9.8513,-9.8531,-9.881,-9.8856,-9.8896,0,0,0,0,0,-9.8226,-9.8419,-9.8339,-9.8351,-9.8377,-9.8451,-9.8453,-9.8335,-9.8209,-9.8296,-9.8235,-9.81,-9.8269,-9.8154,-9.817,-9.8309,-9.8483,-9.8507,-9.8529,-9.8791,-9.8847,-9.8895,0,0,0,0,0,0,-9.8506,-9.8408,-9.8317,-9.8495,-9.8484,-9.8406,-9.8511,-9.8399,-9.8423,-9.8397,-9.8249,-9.824,-9.8397,-9.8367,-9.8241,-9.8533,-9.8353,-9.838,-9.8546,-9.8599,-9.8642,-9.8644,-9.8007,0,0,0,0,0,-9.8589,-9.8657,-9.8568,-9.8733,-9.8732,-9.8624,-9.8652,-9.8562,-9.8544,-9.8538,-9.8486,-9.8475,-9.8525,-9.8561,-9.8602,-9.8806,-9.879,-9.891,-9.8953,-9.8989,-9.9013,-9.9118,-9.9169,-9.8617,-9.8617,-9.8616,0,0,-9.876,-9.8715,-9.8767,-9.8788,-9.8768,-9.8843,-9.8621,-9.8709,-9.8763,-9.8551,-9.8675,-9.8638,-9.8616,-9.8787,-9.8859,-9.8766,-9.9163,-9.9018,-9.9047,-9.9052,-9.9147,-9.9199,-9.9246,-9.8632,-9.863,-9.8627,0,0,-9.9108,-9.9082,-9.9215,-9.9201,-9.9174,-9.9101,-9.9135,-9.9074,-9.9041,-9.9163,-9.9006,-9.9069,-9.9158,-9.9148,-9.9156,-9.9504,-9.9381,-9.9522,-9.9745,-9.9849,-9.9893,-9.993,-10.0053,-10.0099,-9.9547,-9.9548,-9.9549,0,-9.9324,-9.9428,-9.9299,-9.9397,-9.9411,-9.9224,-9.9358,-9.9351,-9.934,-9.9355,-9.9251,-9.9359,-9.9332,-9.9497,-9.9582,-9.9595,-9.9627,-9.9525,-9.9897,-9.9934,-9.9967,-10.0082,-10.0129,-9.9565,-9.9563,-9.9561,-9.956,0,-9.9694,-9.977,-9.9881,-9.9874,-9.9901,-10.0018,-9.9907,-9.995,-9.9859,-9.9798,-9.9926,-9.9886,-9.9915,-9.9949,-9.9861,-10.0103,-10.0045,-9.9923,-9.9737,-10.0039,-10.0144,-10.0188,-9.959,-9.9584,-9.9578,-9.9574,0,0,-10.0214,-10.0135,-10.0178,-10.0172,-10.0131,-10.0187,-10.0296,-10.0324,-10.0363,-10.0364,-10.045,-10.0532,-10.0417,-10.0426,-10.0336,-10.0428,-10.0705,-10.0292,-10.029,-10.0368,-10.0967,-10.1058,-10.1111,-10.0624,-10.0632,-10.0639,-10.0968,0,-10.0545,-10.0724,-10.0612,-10.0809,-10.0876,-10.0701,-10.0796,-10.0782,-10.0729,-10.0779,-10.072,-10.0779,-10.0625,-10.0629,-10.0712,-10.0654,-10.0822,-10.0629,-10.0703,-10.0707,-10.0711,-10.1166,-10.1262,-10.1574,-10.1009,-10.1016,-10.1021,0,-10.0954,-10.0971,-10.1175,-10.1119,-10.1143,-10.1231,-10.1247,-10.1298,-10.1279,-10.1234,-10.1245,-10.1132,-10.1236,-10.1057,-10.1198,-10.1069,-10.1093,-10.107,-10.1079,-10.1078,-10.088,-10.1176,-10.1671,-10.1718,-10.1085,-10.108,-10.1075,0,-10.131,-10.1384,-10.1515,-10.1516,-10.1456,-10.1521,-10.1499,-10.147,-10.1494,-10.151,-10.1524,-10.1554,-10.1569,-10.1595,-10.1493,-10.1373,-10.1648,-10.146,-10.1612,-10.1615,-10.1675,-10.1672,-10.2179,-10.1698,-10.1697,-10.1696,-10.1695,0,-10.1689,-10.182,-10.1673,-10.1754,-10.1896,-10.1767,-10.1912,-10.1871,-10.1848,-10.1918,-10.177,-10.1839,-10.1703,-10.1759,-10.1681,-10.1809,-10.1818,-10.1784,-10.1761,-10.1795,-10.1799,-10.1806,-10.1781,-10.1708,-10.1705,-10.1703,-10.1701,0,-10.2108,-10.2016,-10.2146,-10.2079,-10.2066,-10.2173,-10.2116,-10.2188,-10.2126,-10.2217,-10.2231,-10.2134,-10.2192,-10.2095,-10.2142,-10.2089,-10.2267,-10.2212,-10.2273,-10.2255,-10.2412,-10.2398,-10.2939,-10.3002,-10.2484,-10.2489,-10.2493,0,-10.2355,-10.2451,-10.2395,-10.243,-10.2417,-10.2477,-10.2501,-10.238,-10.2411,-10.2397,-10.2472,-10.2517,-10.2547,-10.2649,-10.2583,-10.2619,-10.2562,-10.2749,-10.2566,-10.2597,-10.2561,-10.2556,-10.2564,-10.2786,-10.2792,-10.2797,-10.2801,0,-10.2801,-10.2751,-10.279,-10.2816,-10.2848,-10.2862,-10.2865,-10.2904,-10.2776,-10.2819,-10.2876,-10.29,-10.2948,-10.2995,-10.3015,-10.2992,-10.2877,-10.286,-10.2896,-10.2931,-10.2961,-10.2944,-10.2372,-10.2847,-10.2843,-10.2839,-10.2837,-10.2835,-10.3139,-10.3216,-10.3188,-10.3238,-10.3228,-10.3235,-10.3299,-10.3245,-10.329,-10.3319,-10.3246,-10.3321,-10.33,-10.3315,-10.3306,-10.3364,-10.3281,-10.3335,-10.3347,-10.3362,-10.3385,-10.2955,-10.3367,-10.3366,-10.3364,-10.3363,-10.3362,0,-10.3575,-10.3549,-10.3596,-10.3605,-10.3645,-10.3532,-10.3531,-10.3571,-10.3639,-10.3629,-10.3662,-10.3728,-10.3774,-10.3714,-10.3749,-10.3807,-10.3755,-10.382,-10.3813,-10.381,-10.3458,-10.3422,-10.3862,-10.3862,-10.3862,-10.3862,-10.3861,-10.3861,-10.3806,-10.393,-10.3878,-10.3996,-10.3969,-10.404,-10.4049,-10.4055,-10.4046,-10.4127,-10.4164,-10.4124,-10.4094,-10.4127,-10.4164,-10.4145,-10.4164,-10.4248,-10.4211,-10.3883,-10.3834,-10.3788,-10.3752,-10.4254,-10.4255,-10.4556,-10.4559,-10.4561]},{"header":{"parameterUnit":"m.s-1","parameterCategory":1,"la1":30.2991,"la2":30.254,"lo1":-89.0895,"lo2":-89.0444,"dy":0.0017,"dx":0.0017,"nx":28,"ny":28,"refTime":"2024-06-19T09:00:00:Z","depth":0,"parameterNumber":3,"parameterNumberName":"V-component_of_WINDS"},"data":[0,0,0,0,0,0,0,0,0,0,0,0,0,0,0,0,0,0,0,0,0,0,0,0,0,0,0,0,0,0,0,0,0,0,0,0,0,0,0,0,0,0,0,0,0,0,0,0,0,0,0,0,0,0,0,0,0,0,0.969,0.969,0,0.9769,0.977,0.9771,0.9814,0.9814,0.9815,0.9815,0.9893,0.9894,0.9896,0,0,0,0,0,0,0,0,0,0,0,0,0,0.9573,0.9575,0.9689,0.969,0.9691,0.9769,0.977,0.9771,0.9814,0.9814,0.9815,0.9815,0.9892,0.9894,0.9897,0,0,0,0,0,0,0,0,0,0,0,0,0,0.9635,0.9576,0.9689,0.9722,0.9726,0.9769,0.977,0.9772,0.9814,0.9814,0.9815,0.9815,0.9891,0.9894,0.9897,0.9912,0,0,0.9906,0.9907,0,0,0,0,0,0,0,0,0.9632,0.9639,0.9717,0.972,0.9724,0.9782,0.9758,0.9819,0.9814,0.9781,0.9815,0.9815,0.9855,0.9861,0.9876,0.9915,0.9919,0.9906,0.9908,0.9909,0.991,0,0,0,0,0,0,0,0.9627,0.9636,0.9721,0.9718,0.9722,0.9733,0.9742,0.977,0.9816,0.9784,0.9787,0.9796,0.9858,0.9873,0.9878,0.992,0.9906,0.9909,0.9911,0.9912,0.9979,0.9979,0,0,0,0,0,0,0.9618,0.9632,0.9718,0.9723,0.9678,0.9735,0.9745,0.9763,0.9816,0.9824,0.9796,0.9798,0.9868,0.9874,0.9881,0.9904,0.9909,0.9912,0.9914,0.9979,0.9979,0.9979,0,0,0,0,0,0,0.9615,0.9625,0.9715,0.9679,0.9691,0.9737,0.9757,0.9765,0.978,0.9825,0.9833,0.9803,0.9868,0.9877,0.9905,0.9907,0.9913,0.9916,0.9979,0.9979,0.9979,0.9948,0,0,0,0,0,0,0.9612,0.9624,0.963,0.9679,0.9693,0.9738,0.9757,0.9766,0.9786,0.9789,0.9834,0.9842,0.9869,0.99,0.9908,0.9911,0.9918,0.9979,0.9979,0.9979,0.9949,0.9947,0.9945,0,0,0,0,0,0.9607,0.9617,0.963,0.964,0.9702,0.9738,0.9746,0.9778,0.9786,0.9792,0.9822,0.984,0.9906,0.9903,0.9912,0.9916,0.9979,0.9979,0.9979,0.995,0.9947,0.9945,0,0,0,0,0,0,0.9565,0.9623,0.9639,0.9664,0.9696,0.9745,0.9754,0.9774,0.9803,0.9805,0.9843,0.9853,0.9878,0.99,0.9895,0.9935,0.9944,0.9946,0.9919,0.9917,0.9915,0.9909,0.9921,0,0,0,0,0,0.9559,0.9584,0.9634,0.9651,0.9667,0.9708,0.9725,0.9748,0.9781,0.9794,0.9826,0.9857,0.9885,0.9902,0.993,0.9953,0.9964,0.996,0.9959,0.9957,0.9958,0.9973,0.9973,0.9979,0.9979,0.9979,0,0,0.9545,0.9581,0.9594,0.9644,0.9671,0.9696,0.9719,0.9744,0.9763,0.9798,0.9827,0.9851,0.9889,0.9915,0.9928,0.9934,0.9959,0.9957,0.9955,0.9957,0.9973,0.9973,0.9972,0.9979,0.9979,0.9979,0,0,0.9535,0.9563,0.9583,0.9611,0.9653,0.9681,0.9685,0.9732,0.975,0.9781,0.9808,0.9832,0.9878,0.9905,0.9924,0.9928,0.9947,0.9936,0.9926,0.9941,0.994,0.994,0.9942,0.9942,0.9937,0.9937,0.9937,0,0.9512,0.9552,0.9589,0.9614,0.9636,0.9671,0.9691,0.9716,0.9764,0.9778,0.9785,0.9847,0.9874,0.9908,0.991,0.9924,0.9931,0.993,0.9937,0.9937,0.9938,0.994,0.9941,0.9935,0.9936,0.9936,0.9936,0,0.9524,0.9552,0.9562,0.9611,0.9633,0.9655,0.9696,0.9715,0.9736,0.9764,0.9795,0.983,0.9867,0.9877,0.9897,0.9915,0.9918,0.993,0.9941,0.9935,0.9938,0.9939,0.9933,0.9934,0.9934,0.9935,0,0,0.9485,0.9557,0.956,0.9584,0.9635,0.9657,0.9681,0.972,0.9736,0.9768,0.979,0.9831,0.9844,0.9867,0.989,0.9904,0.9906,0.9915,0.9917,0.9913,0.9929,0.9919,0.992,0.9919,0.992,0.992,0.9927,0,0.9482,0.9529,0.9565,0.9598,0.9625,0.9661,0.9683,0.9716,0.9743,0.977,0.9799,0.9828,0.9843,0.9857,0.9872,0.9903,0.991,0.9903,0.994,0.9941,0.9929,0.9921,0.991,0.9915,0.9928,0.9928,0.9928,0,0.9484,0.9519,0.9555,0.9606,0.9619,0.9638,0.9677,0.9702,0.9742,0.9761,0.9788,0.9813,0.9841,0.985,0.989,0.9884,0.9902,0.992,0.9921,0.9925,0.9934,0.9926,0.9917,0.9917,0.993,0.993,0.993,0,0.9454,0.9509,0.9539,0.9558,0.9618,0.9631,0.9656,0.9696,0.9718,0.9752,0.9767,0.9803,0.9823,0.9851,0.9886,0.9889,0.9922,0.9934,0.9939,0.9938,0.9943,0.9942,0.9937,0.9955,0.9955,0.9955,0.9955,0,0.9446,0.9467,0.9527,0.9545,0.957,0.9612,0.9636,0.9664,0.97,0.9724,0.9757,0.9779,0.9824,0.9852,0.988,0.9909,0.9917,0.9934,0.9941,0.9931,0.9929,0.9942,0.9943,0.9955,0.9955,0.9955,0.9955,0,0.9416,0.9456,0.9492,0.9547,0.9562,0.9578,0.9625,0.9644,0.9675,0.9705,0.9715,0.9762,0.9797,0.9835,0.9882,0.9901,0.9929,0.9938,0.9916,0.992,0.9923,0.9922,0.9926,0.9929,0.9944,0.9944,0.9944,0,0.9408,0.9426,0.9484,0.9504,0.9529,0.956,0.9584,0.9626,0.9649,0.9697,0.9711,0.9749,0.9781,0.9835,0.9873,0.991,0.9921,0.992,0.9926,0.9917,0.9922,0.992,0.9923,0.9917,0.9917,0.9917,0.9916,0,0.9391,0.9411,0.9444,0.9485,0.9513,0.9547,0.9582,0.9596,0.9645,0.9669,0.9707,0.9732,0.9782,0.9819,0.9861,0.9887,0.991,0.9915,0.9918,0.9908,0.9894,0.9902,0.991,0.9914,0.9914,0.9914,0.9914,0.9915,0.9372,0.939,0.9435,0.9472,0.9504,0.9537,0.9558,0.9593,0.9625,0.967,0.9693,0.9731,0.9772,0.9832,0.9857,0.9887,0.9894,0.9898,0.9899,0.99,0.9898,0.989,0.9894,0.9895,0.9895,0.9895,0.9895,0,0.9357,0.9389,0.9422,0.9472,0.9501,0.9523,0.9564,0.9586,0.962,0.9657,0.969,0.9734,0.9771,0.9813,0.9853,0.9869,0.9881,0.9878,0.9877,0.9883,0.9888,0.9882,0.9868,0.9868,0.9868,0.9868,0.9868,0.9868,0.9352,0.9386,0.9412,0.9461,0.9493,0.9531,0.9553,0.9584,0.9615,0.9663,0.9695,0.9723,0.9763,0.9807,0.9843,0.9854,0.9868,0.9862,0.9876,0.988,0.9882,0.9884,0.9879,0.9864,0.9864,0.9869,0.9869,0.9869]}]]